| time (UTC) | temp C | wind direction | speed KPH | gust KPH | rain 1hr cm | rain 24hr cm | rain mn cm | humidity % | barometer mb |
| 20260505064519 | 20 | 115 | 4.8 | 9.7 | 0.00 | 0.00 | 0.00 | 92 | 1010.4 |
| 20260505063017 | 20 | 117 | 4.8 | 8.0 | 0.00 | 0.00 | 0.00 | 92 | 1010.7 |
| 20260505061527 | 20 | 144 | 3.2 | 8.0 | 0.00 | 0.00 | 0.00 | 92 | 1011.0 |
| 20260505060013 | 19 | 146 | 1.6 | 4.8 | 0.00 | 0.00 | 0.00 | 92 | 1011.1 |
| 20260505054510 | 20 | 123 | 1.6 | 6.4 | 0.00 | 0.00 | 0.00 | 92 | 1011.2 |
| 20260505053010 | 19 | 131 | 1.6 | 6.4 | 0.00 | 0.00 | 0.00 | 92 | 1011.3 |
| 20260505051506 | 19 | 136 | 1.6 | 6.4 | 0.00 | 0.00 | 0.00 | 92 | 1011.4 |
| 20260505041503 | 18 | 123 | 0.0 | 3.2 | 0.00 | 0.00 | 0.00 | 93 | 1011.7 |
| 20260505040002 | 19 | 129 | 1.6 | 4.8 | 0.00 | 0.00 | 0.00 | 92 | 1012.0 |
| 20260505034604 | 19 | 132 | 0.0 | 4.8 | 0.00 | 0.00 | 0.00 | 92 | 1012.2 |
| 20260505033100 | 19 | 139 | 1.6 | 4.8 | 0.00 | 0.00 | 0.00 | 92 | 1012.0 |
| 20260505031607 | 19 | 129 | 1.6 | 4.8 | 0.00 | 0.00 | 0.00 | 92 | 1012.1 |
| 20260505030156 | 19 | 124 | 1.6 | 4.8 | 0.00 | 0.00 | 0.00 | 91 | 1011.9 |
| 20260505024555 | 20 | 116 | 1.6 | 6.4 | 0.00 | 0.00 | 0.00 | 90 | 1011.9 |
| 20260505023101 | 20 | 131 | 3.2 | 6.4 | 0.00 | 0.00 | 0.00 | 90 | 1011.9 |
| 20260505021554 | 20 | 124 | 3.2 | 8.0 | 0.00 | 0.00 | 0.00 | 89 | 1011.6 |
| 20260505020053 | 20 | 130 | 3.2 | 11.3 | 0.00 | 0.00 | 0.00 | 88 | 1011.5 |
| 20260505014639 | 20 | 120 | 4.8 | 12.9 | 0.00 | 0.00 | 0.00 | 87 | 1011.5 |
| 20260505013052 | 20 | 146 | 3.2 | 8.0 | 0.00 | 0.00 | 0.00 | 87 | 1011.5 |
| 20260505011546 | 21 | 155 | 3.2 | 9.7 | 0.00 | 0.00 | 0.00 | 86 | 1011.7 |
| 20260505010046 | 21 | 145 | 4.8 | 12.9 | 0.00 | 0.00 | 0.00 | 84 | 1011.7 |
| 20260505004546 | 21 | 150 | 6.4 | 12.9 | 0.00 | 0.00 | 0.00 | 83 | 1011.6 |
| 20260505003042 | 22 | 139 | 8.0 | 17.7 | 0.00 | 0.00 | 0.00 | 82 | 1011.7 |
| 20260505001549 | 22 | 146 | 11.3 | 19.3 | 0.00 | 0.00 | 0.00 | 80 | 1011.8 |
| 20260505000045 | 22 | 144 | 9.7 | 17.7 | 0.00 | 0.00 | 0.00 | 79 | 1012.3 |
| 20260504234538 | 22 | 154 | 8.0 | 16.1 | 0.00 | 0.00 | 0.00 | 78 | 1012.2 |
| 20260504233036 | 23 | 139 | 8.0 | 19.3 | 0.00 | 0.00 | 0.00 | 77 | 1012.3 |
| 20260504231546 | 23 | 153 | 14.5 | 22.5 | 0.00 | 0.00 | 0.00 | 75 | 1012.4 |
| 20260504230033 | 25 | 159 | 12.9 | 20.9 | 0.00 | 0.00 | 0.00 | 73 | 1012.4 |
| 20260504224536 | 25 | 112 | 9.7 | 19.3 | 0.00 | 0.00 | 0.00 | 72 | 1012.5 |
| 20260504223030 | 25 | 131 | 12.9 | 22.5 | 0.00 | 0.00 | 0.00 | 73 | 1012.7 |
| 20260504221528 | 25 | 202 | 9.7 | 20.9 | 0.00 | 0.00 | 0.00 | 70 | 1012.8 |
| 20260504220032 | 25 | 253 | 11.3 | 19.3 | 0.00 | 0.00 | 0.00 | 70 | 1012.9 |
| 20260504214525 | 25 | 179 | 12.9 | 25.7 | 0.00 | 0.00 | 0.00 | 69 | 1013.0 |
| 20260504213023 | 25 | 153 | 12.9 | 24.1 | 0.00 | 0.00 | 0.00 | 69 | 1013.2 |
| 20260504211524 | 25 | 252 | 12.9 | 25.7 | 0.00 | 0.00 | 0.00 | 67 | 1013.3 |
| 20260504210019 | 26 | 236 | 11.3 | 19.3 | 0.00 | 0.00 | 0.00 | 68 | 1013.6 |
| 20260504204518 | 25 | 242 | 11.3 | 20.9 | 0.00 | 0.00 | 0.00 | 68 | 1013.8 |
| 20260504203022 | 26 | 210 | 12.9 | 25.7 | 0.00 | 0.00 | 0.00 | 69 | 1013.9 |
| 20260504201511 | 25 | 131 | 12.9 | 25.7 | 0.00 | 0.00 | 0.00 | 66 | 1014.3 |
| 20260504200010 | 25 | 195 | 12.9 | 22.5 | 0.00 | 0.00 | 0.00 | 66 | 1014.5 |
| 20260504194517 | 25 | 141 | 11.3 | 20.9 | 0.00 | 0.00 | 0.00 | 68 | 1014.5 |
| 20260504193014 | 25 | 117 | 9.7 | 25.7 | 0.00 | 0.00 | 0.00 | 69 | 1014.6 |
| 20260504191506 | 25 | 139 | 12.9 | 22.5 | 0.00 | 0.00 | 0.00 | 68 | 1014.9 |
| 20260504190003 | 25 | 220 | 9.7 | 25.7 | 0.00 | 0.00 | 0.00 | 67 | 1015.1 |
| 20260504184506 | 25 | 176 | 9.7 | 19.3 | 0.00 | 0.00 | 0.00 | 67 | 1015.5 |
| 20260504183100 | 25 | 187 | 11.3 | 25.7 | 0.00 | 0.00 | 0.00 | 66 | 1015.5 |
| 20260504181603 | 25 | 124 | 11.3 | 25.7 | 0.00 | 0.00 | 0.00 | 66 | 1015.6 |
| 20260504180150 | 25 | 125 | 12.9 | 24.1 | 0.00 | 0.00 | 0.00 | 67 | 1015.8 |
| 20260504174555 | 25 | 193 | 9.7 | 25.7 | 0.00 | 0.00 | 0.00 | 67 | 1015.8 |
| 20260504173103 | 25 | 207 | 9.7 | 22.5 | 0.00 | 0.00 | 0.00 | 68 | 1016.1 |
| 20260504171551 | 24 | 130 | 12.9 | 30.6 | 0.00 | 0.00 | 0.00 | 65 | 1016.3 |
| 20260504120110 | 13 | 146 | 0.0 | 0.0 | 0.00 | 0.00 | 0.00 | 98 | 1016.6 |
| 20260504081514 | 13 | 146 | 0.0 | 0.0 | 0.00 | 0.00 | 0.00 | 94 | 1016.4 |